AMAZONAS 3

Last updated on Tue Sep 22 2026 00:03:12 GMT+0000 (Coordinated Universal Time)

1 39078U 13006A 26264.54826428 -.00000286 00000+0 00000+0 0 9991 2 39078 0.0317 221.3388 0005170 334.2865 301.1997 1.00274104 45896
UTC large
Height (km)
Speed (km/s)
/
Latitude / Longitude
Inclination (degrees)
Orbital Period (minutes)
Azimuth
Elevation
Range (km)
Doppler Factor

Next 0 passes for location: London (51.5072 / 0.1276)

No passes found over London.
AMAZONAS 3